Location: Bailleul
(50.3375°N, 2.8513°E)
Time: 04:07:33
(UTC+00:00)

Cosmos 1140 Rocket - Pass Details

Date: 19 April 2021
Orbit: 745 x 767 km, 74.1° (Epoch: 09 May)

Event Time Altitude Azimuth Distance (km) Brightness Sun altitude
Exits shadow 20:36:41 12° 179° (S) 2,117 5.4 -15.5°
Maximum altitude 20:41:14 50° 107° (ESE) 950 3.6 -16.1°
Drops below altitude 10° 20:46:11 10° 33° (NNE) 2,272 6.1 -16.6°
Sets 20:48:36 0° 28° (NNE) 3,201 6.9 -16.9°
